DW2113 Weather Reports


Display with metric or nautical units.
time (UTC)temp
F
wind
direction
speed
MPH
gust
MPH
rain 1hr
in
rain 24hr
in
rain mn
in
humidity
%
barometer
mb
20260507000831 63 360 11.0 15.0 0.00 0.00 0.00 48
20260507000335 63 360 9.0 13.0 0.00 0.00 0.00 47
20260506235830 64 17 8.0 13.0 0.00 0.00 0.00 47
20260506235347 64 18 10.0 15.0 0.00 0.00 0.00 47
20260506234843 64 69 9.0 15.0 0.00 0.00 0.00 47
20260506234342 64 360 5.0 12.0 0.00 0.00 0.00 48
20260506233900 64 42 8.0 12.0 0.00 0.00 0.00 48
20260506233336 64 29 6.0 12.0 0.00 0.00 0.00 48
20260506232834 63 360 5.0 12.0 0.00 0.00 0.00 48
20260506232331 64 27 5.0 12.0 0.00 0.00 0.00 48
20260506231828 64 40 8.0 16.0 0.00 0.00 0.00 48
20260506231345 64 18 9.0 16.0 0.00 0.00 0.00 47
20260506230905 64 65 6.0 15.0 0.00 0.00 0.00 48
20260506230341 64 355 10.0 15.0 0.00 0.00 0.00 48
20260506225839 64 27 9.0 15.0 0.00 0.00 0.00 48
20260506225335 64 14 8.0 13.0 0.00 0.00 0.00 48
20260506224830 64 360 8.0 13.0 0.00 0.00 0.00 48
20260506224347 64 24 7.0 15.0 0.00 0.00 0.00 49
20260506223844 64 360 10.0 15.0 0.00 0.00 0.00 48
20260506223345 64 48 9.0 14.0 0.00 0.00 0.00 49
20260506222843 64 32 8.0 15.0 0.00 0.00 0.00 48
20260506222339 64 49 9.0 15.0 0.00 0.00 0.00 49
20260506221836 64 360 10.0 15.0 0.00 0.00 0.00 48
20260506221333 64 38 3.0 14.0 0.00 0.00 0.00 48
20260506220830 64 360 10.0 15.0 0.00 0.00 0.00 48
20260506220408 64 360 8.0 15.0 0.00 0.00 0.00 49
20260506215845 64 360 7.0 15.0 0.00 0.00 0.00 48
20260506215341 65 23 10.0 16.0 0.00 0.00 0.00 49
20260506214838 64 360 5.0 19.0 0.00 0.00 0.00 49
20260506214336 64 360 11.0 17.0 0.00 0.00 0.00 49
20260506213832 64 360 7.0 17.0 0.00 0.00 0.00 49
20260506213329 64 360 8.0 15.0 0.00 0.00 0.00 49
20260506212848 64 360 12.0 19.0 0.00 0.00 0.00 49
20260506212344 64 360 12.0 19.0 0.00 0.00 0.00 50
20260506211842 63 360 13.0 19.0 0.00 0.00 0.00 50
20260506211343 64 360 11.0 19.0 0.00 0.00 0.00 50
20260506210840 64 26 11.0 19.0 0.00 0.00 0.00 50
20260506210337 63 360 11.0 18.0 0.00 0.00 0.00 50
20260506205836 63 360 10.0 21.0 0.00 0.00 0.00 50
20260506205352 64 360 11.0 18.0 0.00 0.00 0.00 50
20260506204829 63 20 10.0 18.0 0.00 0.00 0.00 50
20260506204346 64 360 12.0 19.0 0.00 0.00 0.00 50
20260506203844 63 360 9.0 20.0 0.00 0.00 0.00 50
20260506203338 63 9 7.0 15.0 0.00 0.00 0.00 50
20260506202837 64 5 11.0 16.0 0.00 0.00 0.00 50
20260506202333 63 24 9.0 18.0 0.00 0.00 0.00 51
20260506201831 63 360 14.0 18.0 0.00 0.00 0.00 51
20260506201328 63 60 9.0 20.0 0.00 0.00 0.00 51
20260506200845 63 27 13.0 20.0 0.00 0.00 0.00 52
20260506200343 63 360 13.0 20.0 0.00 0.00 0.00 51
20260506195901 63 360 12.0 20.0 0.00 0.00 0.00 51
20260506195336 62 30 9.0 17.0 0.00 0.00 0.00 51
20260506194838 63 360 11.0 16.0 0.00 0.00 0.00 51
20260506194356 63 360 10.0 18.0 0.00 0.00 0.00 51
20260506193852 63 360 9.0 18.0 0.00 0.00 0.00 51
20260506193328 63 360 12.0 18.0 0.00 0.00 0.00 52
20260506192908 62 29 12.0 18.0 0.00 0.00 0.00 51
20260506192342 63 28 14.0 18.0 0.00 0.00 0.00 51
20260506191839 63 360 7.0 17.0 0.00 0.00 0.00 52
20260506191337 63 24 11.0 17.0 0.00 0.00 0.00 52
20260506190854 63 38 10.0 17.0 0.00 0.00 0.00 51
20260506190331 64 360 12.0 17.0 0.00 0.00 0.00 51
20260506185830 63 360 9.0 21.0 0.00 0.00 0.00 52
20260506185347 63 360 12.0 21.0 0.00 0.00 0.00 52
20260506184844 62 360 9.0 19.0 0.00 0.00 0.00 52
20260506184342 62 55 10.0 19.0 0.00 0.00 0.00 54
20260506183840 62 360 13.0 19.0 0.00 0.00 0.00 53
20260506183338 62 360 11.0 17.0 0.00 0.00 0.00 52
20260506182856 62 360 10.0 20.0 0.00 0.00 0.00 53
20260506182352 62 360 8.0 17.0 0.00 0.00 0.00 53
20260506181828 61 360 7.0 16.0 0.00 0.00 0.00 54
20260506181406 62 360 12.0 18.0 0.00 0.00 0.00 53
20260506180843 62 360 11.0 18.0 0.00 0.00 0.00 55
20260506180401 61 360 11.0 18.0 0.00 0.00 0.00 54
20260506175837 61 360 10.0 18.0 0.00 0.00 0.00 55
20260506175334 61 360 12.0 19.0 0.00 0.00 0.00 55
20260506174834 60 360 8.0 16.0 0.00 0.00 0.00 56
20260506174332 60 360 9.0 18.0 0.00 0.00 0.00 56
20260506173829 59 360 13.0 21.0 0.00 0.00 0.00 56
20260506173408 60 360 11.0 21.0 0.00 0.00 0.00 56
20260506172844 60 360 10.0 20.0 0.00 0.00 0.00 56
20260506172341 59 360 14.0 20.0 0.00 0.00 0.00 56
20260506171838 59 360 13.0 20.0 0.00 0.00 0.00 57
20260506171335 59 360 12.0 20.0 0.00 0.00 0.00 58
20260506170831 59 360 13.0 20.0 0.00 0.00 0.00 57
20260506170341 59 360 13.0 22.0 0.00 0.00 0.00 58
20260506165841 58 360 16.0 22.0 0.00 0.00 0.00 59
20260506165357 58 360 15.0 22.0 0.00 0.00 0.00 59
20260506164853 58 360 11.0 19.0 0.00 0.00 0.00 59
20260506164351 59 360 11.0 21.0 0.00 0.00 0.00 59
20260506163828 58 360 15.0 21.0 0.00 0.00 0.00 61
20260506163345 57 360 13.0 19.0 0.00 0.00 0.00 61
20260506162843 57 360 13.0 20.0 0.00 0.00 0.00 61
20260506162340 56 360 11.0 18.0 0.00 0.00 0.00 62
20260506161858 56 360 12.0 21.0 0.00 0.00 0.00 61
20260506161334 56 360 16.0 24.0 0.00 0.00 0.00 61
20260506160833 57 360 15.0 24.0 0.00 0.00 0.00 61
20260506160334 56 360 12.0 22.0 0.00 0.00 0.00 62
20260506155833 56 360 12.0 25.0 0.00 0.00 0.00 63
20260506155329 55 360 17.0 25.0 0.00 0.00 0.00 64
20260506154847 55 360 14.0 21.0 0.00 0.00 0.00 64
20260506154345 55 360 12.0 21.0 0.00 0.00 0.00 64
20260506153842 55 360 10.0 20.0 0.00 0.00 0.00 65
20260506153339 55 360 14.0 20.0 0.00 0.00 0.00 66
20260506152837 54 360 11.0 24.0 0.00 0.00 0.00 68
20260506152334 53 360 15.0 24.0 0.00 0.00 0.00 68
20260506151832 53 360 12.0 19.0 0.00 0.00 0.00 69
20260506151329 53 360 14.0 20.0 0.00 0.00 0.00 70
20260506150846 52 360 15.0 21.0 0.00 0.00 0.00 70
20260506150344 53 360 15.0 20.0 0.00 0.00 0.00 70
20260506145841 52 360 15.0 19.0 0.00 0.00 0.00 70
20260506145358 53 360 14.0 21.0 0.00 0.00 0.00 71
20260506144835 52 360 15.0 22.0 0.00 0.00 0.00 72
20260506144353 52 360 15.0 21.0 0.00 0.00 0.00 73
20260506143834 51 360 13.0 22.0 0.00 0.00 0.00 73
20260506143331 51 360 14.0 22.0 0.00 0.00 0.00 73
20260506142830 51 360 16.0 22.0 0.00 0.00 0.00 73
20260506142346 51 360 15.0 21.0 0.00 0.00 0.00 73
20260506141844 51 360 16.0 21.0 0.00 0.00 0.00 74
20260506141341 50 360 15.0 20.0 0.00 0.00 0.00 74
20260506140839 50 360 13.0 20.0 0.00 0.00 0.00 74
20260506140336 50 360 13.0 23.0 0.00 0.00 0.00 74
20260506135835 50 360 16.0 23.0 0.00 0.00 0.00 75
20260506135331 50 360 11.0 21.0 0.00 0.00 0.00 75
20260506134849 50 360 10.0 22.0 0.00 0.00 0.00 75
20260506134346 50 360 15.0 22.0 0.00 0.00 0.00 75
20260506133843 50 360 12.0 20.0 0.00 0.00 0.00 75
20260506133401 50 360 12.0 18.0 0.00 0.00 0.00 75
20260506132837 49 360 14.0 19.0 0.00 0.00 0.00 75
20260506132334 49 360 13.0 19.0 0.00 0.00 0.00 75
20260506131851 49 360 13.0 19.0 0.00 0.00 0.00 75
20260506131331 49 360 14.0 19.0 0.00 0.00 0.00 76
20260506130849 49 360 11.0 19.0 0.00 0.00 0.00 76
20260506130346 49 360 12.0 19.0 0.00 0.00 0.00 75
20260506125844 49 360 10.0 17.0 0.00 0.00 0.00 75
20260506125340 49 360 11.0 17.0 0.00 0.00 0.00 75
20260506124837 49 360 10.0 17.0 0.00 0.00 0.00 75
20260506124334 49 360 9.0 15.0 0.00 0.00 0.00 75
20260506123831 49 360 9.0 16.0 0.00 0.00 0.00 75
20260506123329 49 360 12.0 16.0 0.00 0.00 0.00 75
20260506122848 49 360 9.0 14.0 0.00 0.00 0.00 75
20260506122405 48 360 9.0 14.0 0.00 0.00 0.00 75
20260506121841 48 360 9.0 13.0 0.00 0.00 0.00 75
20260506121338 48 360 7.0 12.0 0.00 0.00 0.00 75
20260506120836 48 360 7.0 14.0 0.00 0.00 0.00 75
20260506120332 48 360 10.0 14.0 0.00 0.00 0.00 75
20260506115911 48 360 8.0 13.0 0.00 0.00 0.00 75
20260506115347 48 360 8.0 12.0 0.00 0.00 0.00 75
20260506114828 47 360 7.0 12.0 0.00 0.00 0.00 75
20260506114403 47 360 6.0 10.0 0.00 0.00 0.00 76
20260506113843 47 360 6.0 10.0 0.00 0.00 0.00 76
20260506113400 47 360 5.0 11.0 0.00 0.00 0.00 76
20260506112837 47 360 7.0 11.0 0.00 0.00 0.00 76
20260506112333 47 360 5.0 9.0 0.00 0.00 0.00 76
20260506111852 47 360 7.0 11.0 0.00 0.00 0.00 76
20260506111328 47 360 6.0 11.0 0.00 0.00 0.00 76
20260506110845 47 360 4.0 10.0 0.00 0.00 0.00 76
20260506110342 48 360 7.0 10.0 0.00 0.00 0.00 76
20260506105841 48 360 6.0 10.0 0.00 0.00 0.00 76
20260506105337 48 360 6.0 11.0 0.00 0.00 0.00 76
20260506104835 48 360 7.0 16.0 0.00 0.00 0.00 76
20260506104332 48 360 10.0 16.0 0.00 0.00 0.00 76
20260506103830 48 360 10.0 16.0 0.00 0.00 0.00 76
20260506103346 49 360 12.0 15.0 0.00 0.00 0.00 75
20260506102843 49 360 9.0 18.0 0.00 0.00 0.00 75
20260506102339 49 360 10.0 18.0 0.00 0.00 0.00 75
20260506101837 49 360 9.0 13.0 0.00 0.00 0.00 75
20260506101338 49 360 9.0 13.0 0.00 0.00 0.00 75
20260506100836 49 360 7.0 18.0 0.00 0.00 0.00 75
20260506100333 49 360 12.0 18.0 0.00 0.00 0.00 75
20260506095832 49 360 9.0 14.0 0.00 0.00 0.00 74
20260506095348 49 360 9.0 13.0 0.00 0.00 0.00 74
20260506094845 49 360 9.0 14.0 0.00 0.00 0.00 74
20260506094342 49 360 7.0 12.0 0.00 0.00 0.00 74
20260506093841 49 360 6.0 12.0 0.00 0.00 0.00 73
20260506093359 49 360 6.0 12.0 0.00 0.00 0.00 73
20260506092836 49 360 7.0 14.0 0.00 0.00 0.00 73
20260506092332 49 360 9.0 14.0 0.00 0.00 0.00 73
20260506091829 49 360 6.0 11.0 0.00 0.00 0.00 72
20260506091327 49 360 7.0 12.0 0.00 0.00 0.00 72
20260506090845 49 360 8.0 12.0 0.00 0.00 0.00 72
20260506090343 49 360 6.0 10.0 0.00 0.00 0.00 72
20260506085901 49 360 5.0 9.0 0.00 0.00 0.00 72
20260506085337 49 360 6.0 10.0 0.00 0.00 0.00 71
20260506084839 49 360 7.0 10.0 0.00 0.00 0.00 71
20260506084335 49 360 5.0 11.0 0.00 0.00 0.00 71
20260506083832 49 360 7.0 13.0 0.00 0.00 0.00 71
20260506083329 49 360 9.0 13.0 0.00 0.00 0.00 70
20260506082847 49 360 8.0 13.0 0.00 0.00 0.00 70
20260506082344 49 360 6.0 13.0 0.00 0.00 0.00 70
20260506081841 49 360 7.0 14.0 0.00 0.00 0.00 70
20260506081338 49 360 10.0 14.0 0.00 0.00 0.00 69
20260506080835 49 360 10.0 15.0 0.00 0.00 0.00 69
20260506080332 49 360 8.0 15.0 0.00 0.00 0.00 69
20260506073341 49 360 9.0 14.0 0.00 0.00 0.00 70
20260506072839 49 360 8.0 14.0 0.00 0.00 0.00 70
20260506072335 49 360 7.0 12.0 0.00 0.00 0.00 70
20260506071832 49 360 6.0 11.0 0.00 0.00 0.00 70
20260506071350 49 360 8.0 11.0 0.00 0.00 0.00 70
20260506070848 49 360 6.0 10.0 0.00 0.00 0.00 70
20260506070345 49 360 6.0 13.0 0.00 0.00 0.00 69
20260506062345 49 360 11.0 16.0 0.00 0.00 0.00 69
20260506061842 49 360 8.0 17.0 0.00 0.00 0.00 70
20260506061340 49 360 11.0 17.0 0.00 0.00 0.00 70
20260506060842 49 360 12.0 16.0 0.00 0.00 0.00 70
20260506060338 49 360 11.0 17.0 0.00 0.00 0.00 71
20260506051327 49 360 12.0 20.0 0.00 0.00 0.00 74
20260506050906 49 360 14.0 20.0 0.00 0.00 0.00 74
20260506050334 49 360 14.0 20.0 0.00 0.00 0.00 74
20260506044845 49 360 11.0 21.0 0.00 0.00 0.00 75
20260506044343 49 360 15.0 23.0 0.00 0.00 0.00 75
20260506043840 49 360 16.0 23.0 0.00 0.00 0.00 75
20260506043339 49 360 13.0 18.0 0.00 0.00 0.00 75
20260506042840 49 360 12.0 16.0 0.00 0.00 0.00 75
20260506042336 49 360 11.0 22.0 0.00 0.00 0.00 75
20260506041835 49 360 14.0 24.0 0.00 0.00 0.00 75
20260506041332 49 360 13.0 24.0 0.00 0.00 0.00 75
20260506040910 50 360 13.0 22.0 0.00 0.00 0.00 75
20260506040407 50 360 16.0 22.0 0.00 0.00 0.00 75
20260506035844 50 360 14.0 22.0 0.00 0.00 0.00 75
20260506035401 50 360 11.0 17.0 0.00 0.00 0.00 75
20260506034837 50 360 13.0 22.0 0.00 0.00 0.00 75
20260506034355 50 360 16.0 25.0 0.00 0.00 0.00 75
20260506033851 50 360 17.0 25.0 0.00 0.00 0.00 75
20260506033408 50 360 13.0 22.0 0.00 0.00 0.00 75
20260506032845 50 360 15.0 21.0 0.00 0.00 0.00 75
20260506032342 50 360 9.0 19.0 0.00 0.00 0.00 76
20260506031839 50 360 13.0 19.0 0.00 0.00 0.00 76
20260506031356 50 360 9.0 15.0 0.00 0.00 0.00 76
20260506030832 50 360 8.0 17.0 0.00 0.00 0.00 76
20260506030349 50 360 10.0 17.0 0.00 0.00 0.00 76
20260506025847 49 360 11.0 15.0 0.00 0.00 0.00 76
20260506025343 49 360 8.0 15.0 0.00 0.00 0.00 76
20260506024840 49 360 11.0 15.0 0.00 0.00 0.00 76
20260506024338 49 360 10.0 17.0 0.00 0.00 0.00 76
20260506023835 49 360 11.0 15.0 0.00 0.00 0.00 76
20260506023336 49 360 8.0 18.0 0.00 0.00 0.00 76
20260506022834 49 360 14.0 18.0 0.00 0.00 0.00 76
20260506022330 49 360 10.0 17.0 0.00 0.00 0.00 76
20260506021907 50 360 10.0 20.0 0.00 0.00 0.00 76
20260506021344 50 360 11.0 20.0 0.00 0.00 0.00 76
20260506020841 50 360 11.0 22.0 0.00 0.00 0.00 76
20260506020400 50 360 11.0 24.0 0.00 0.00 0.00 76
20260506015837 50 360 13.0 24.0 0.00 0.00 0.00 76
20260506015333 50 360 14.0 26.0 0.00 0.00 0.00 76
20260506014830 50 360 13.0 26.0 0.00 0.00 0.00 76
20260506014348 50 360 15.0 26.0 0.00 0.00 0.00 76
20260506013845 50 360 17.0 26.0 0.00 0.00 0.00 76
20260506013342 50 360 13.0 23.0 0.00 0.00 0.00 75
20260506012839 51 360 16.0 23.0 0.00 0.00 0.00 75
20260506012335 51 360 16.0 23.0 0.00 0.00 0.00 75
20260506011832 51 360 16.0 24.0 0.00 0.00 0.00 75
20260506011330 51 360 16.0 24.0 0.00 0.00 0.00 75
20260506010831 51 360 13.0 22.0 0.00 0.00 0.00 75
20260506010349 51 360 13.0 22.0 0.00 0.00 0.00 75
20260506005847 51 360 13.0 23.0 0.00 0.00 0.00 75
20260506005342 51 360 15.0 23.0 0.00 0.00 0.00 75
20260506004840 51 360 17.0 23.0 0.00 0.00 0.00 75
20260506004357 51 360 11.0 21.0 0.00 0.00 0.00 75
20260506003855 51 360 16.0 21.0 0.00 0.00 0.00 75
20260506003331 51 360 12.0 22.0 0.00 0.00 0.00 75
20260506002829 51 360 14.0 22.0 0.00 0.00 0.00 75
20260506002407 51 360 15.0 21.0 0.00 0.00 0.00 75
20260506001842 51 360 14.0 20.0 0.00 0.00 0.00 75
20260506001359 51 360 15.0 19.0 0.00 0.00 0.00 75